EW4696 Weather Reports


Display with metric or nautical units.
time (UTC)temp
F
wind
direction
speed
MPH
gust
MPH
rain 1hr
in
rain 24hr
in
rain mn
in
humidity
%
barometer
mb
20220815225005 96 168 1.0 5.0 0.00 0.00 0.00 46 1012.3
20220815224005 96 210 1.0 4.0 0.00 0.00 0.00 44 1012.3
20220815223004 97 183 1.0 7.0 0.00 0.00 0.00 43 1012.3
20220815222005 97 186 1.0 5.0 0.00 0.00 0.00 43 1012.4
20220815221504 97 193 1.0 5.0 0.00 0.00 0.00 43 1012.3
20220815221004 97 185 1.0 5.0 0.00 0.00 0.00 42 1012.4
20220815220004 97 196 1.0 7.0 0.00 0.00 0.00 41 1012.6
20220815215505 98 187 1.0 7.0 0.00 0.00 0.00 40 1012.6
20220815215004 99 192 1.0 5.0 0.00 0.00 0.00 39 1012.6
20220815213504 98 179 1.0 5.0 0.00 0.00 0.00 40 1012.7
20220815212505 97 129 1.0 7.0 0.00 0.00 0.00 40 1012.9
20220815212005 97 147 1.0 7.0 0.00 0.00 0.00 41 1012.9
20220815211505 97 110 2.0 7.0 0.00 0.00 0.00 40 1013.1
20220815211004 97 119 1.0 4.0 0.00 0.00 0.00 39 1012.9
20220815205504 97 166 2.0 6.0 0.00 0.00 0.00 41 1013.2
20220815203005 97 108 1.0 4.0 0.00 0.00 0.00 41 1013.6
20220815202004 96 85 1.0 4.0 0.00 0.00 0.00 43 1013.7
20220815201505 96 106 1.0 7.0 0.00 0.00 0.00 43 1013.8
20220815195505 96 150 1.0 5.0 0.00 0.00 0.00 43 1013.9
20220815193504 97 166 1.0 6.0 0.00 0.00 0.00 43 1014.3
20220815191005 96 86 1.0 3.0 0.00 0.00 0.00 46 1014.7
20220815190505 95 141 1.0 6.0 0.00 0.00 0.00 45 1014.8
20220815183005 92 171 1.0 5.0 0.00 0.00 0.00 52 1015.3
20220815182504 92 201 1.0 5.0 0.00 0.00 0.00 53 1015.3
20220815181005 92 186 1.0 6.0 0.00 0.00 0.00 53 1015.6
20220815175504 92 175 1.0 6.0 0.00 0.00 0.00 53 1015.6
20220815175004 91 149 1.0 4.0 0.00 0.00 0.00 56 1015.7
20220815174505 91 161 1.0 4.0 0.00 0.00 0.00 54 1015.7
20220815174004 91 174 1.0 4.0 0.00 0.00 0.00 55 1015.6
20220815173005 91 219 1.0 4.0 0.00 0.00 0.00 57 1015.7
20220815172004 90 240 1.0 3.0 0.00 0.00 0.00 58 1015.7
20220815171505 89 221 1.0 5.0 0.00 0.00 0.00 62 1015.7
20220815171004 88 199 1.0 5.0 0.00 0.00 0.00 63 1015.9
20220815170504 88 195 1.0 4.0 0.00 0.00 0.00 62 1015.9
20220815170005 89 188 1.0 5.0 0.00 0.00 0.00 63 1015.9
20220815164505 88 242 1.0 6.0 0.00 0.00 0.00 65 1016.0
20220815164004 87 260 1.0 6.0 0.00 0.00 0.00 65 1016.0
20220815163005 86 162 1.0 4.0 0.00 0.00 0.00 66 1016.0
20220815162504 86 203 1.0 4.0 0.00 0.00 0.00 66 1016.1
20220815161504 86 216 1.0 5.0 0.00 0.00 0.00 67 1016.2
20220815161004 86 0 0.0 5.0 0.00 0.00 0.00 69 1016.2
20220815160505 86 0 0.0 4.0 0.00 0.00 0.00 69 1016.3
20220815160004 86 187 1.0 4.0 0.00 0.00 0.00 69 1016.3
20220815154504 86 183 1.0 5.0 0.00 0.00 0.00 70 1016.4
20220815153505 84 76 1.0 4.0 0.00 0.00 0.00 71 1016.4
20220815153005 84 98 1.0 4.0 0.00 0.00 0.00 73 1016.3
20220815152004 82 157 1.0 4.0 0.00 0.00 0.00 76 1016.2
20220815151005 82 0 0.0 3.0 0.00 0.00 0.00 77 1016.2
20220815143505 81 0 0.0 4.0 0.00 0.00 0.00 78 1016.0
20220815143004 81 0 0.0 3.0 0.00 0.00 0.00 79 1016.0
20220815135504 79 0 0.0 5.0 0.00 0.00 0.00 82 1015.9
20220815135005 78 0 0.0 5.0 0.00 0.00 0.00 83 1015.9
20220815134504 78 0 0.0 2.0 0.00 0.00 0.00 83 1015.8
20220815132504 78 0 0.0 1.0 0.00 0.00 0.00 84 1015.8
20220815131005 77 0 0.0 1.0 0.00 0.00 0.00 84 1015.6
20220815130504 77 0 0.0 1.0 0.00 0.00 0.00 84 1015.6
20220815125505 76 0 0.0 1.0 0.00 0.00 0.00 85 1015.5
20220815125004 76 0 0.0 1.0 0.00 0.00 0.00 84 1015.5
20220815124005 76 0 0.0 1.0 0.00 0.00 0.00 85 1015.5
20220815123504 76 0 0.0 0.0 0.00 0.00 0.00 85 1015.6
20220815122505 76 0 0.0 0.0 0.00 0.00 0.00 85 1015.6
20220815120505 75 0 0.0 0.0 0.00 0.00 0.00 84 1015.4
20220815115004 75 0 0.0 0.0 0.00 0.00 0.00 84 1015.5
20220815114505 75 0 0.0 0.0 0.00 0.00 0.00 84 1015.4
20220815113504 75 0 0.0 1.0 0.00 0.00 0.00 84 1015.3
20220815112504 75 0 0.0 0.0 0.00 0.00 0.00 83 1015.2
20220815111505 75 0 0.0 1.0 0.00 0.00 0.00 83 1015.2
20220815111004 76 0 0.0 1.0 0.00 0.00 0.00 83 1015.2
20220815105505 76 0 0.0 0.0 0.00 0.00 0.00 83 1015.2
20220815104004 76 0 0.0 1.0 0.00 0.00 0.00 83 1015.0
20220815103504 76 0 0.0 1.0 0.00 0.00 0.00 83 1015.0
20220815102504 76 0 0.0 0.0 0.00 0.00 0.00 82 1014.9
20220815100505 76 0 0.0 1.0 0.00 0.00 0.00 82 1014.9
20220815095504 76 0 0.0 1.0 0.00 0.00 0.00 82 1014.9
20220815094004 76 0 0.0 1.0 0.00 0.00 0.00 81 1014.9
20220815093005 77 0 0.0 1.0 0.00 0.00 0.00 81 1014.9
20220815092504 77 0 0.0 1.0 0.00 0.00 0.00 81 1014.9
20220815092005 77 0 0.0 2.0 0.00 0.00 0.00 81 1014.8
20220815091504 77 0 0.0 2.0 0.00 0.00 0.00 80 1014.8
20220815091009 77 0 0.0 1.0 0.00 0.00 0.00 80 1014.9
20220815085504 77 0 0.0 3.0 0.00 0.00 0.00 80 1014.7
20220815084004 77 0 0.0 3.0 0.00 0.00 0.00 79 1014.9
20220815083505 77 0 0.0 3.0 0.00 0.00 0.00 79 1014.9
20220815080005 76 0 0.0 1.0 0.00 0.00 0.00 79 1014.9
20220815075504 76 0 0.0 1.0 0.00 0.00 0.00 78 1015.0
20220815074505 76 0 0.0 1.0 0.00 0.00 0.00 78 1014.8
20220815072505 76 0 0.0 0.0 0.00 0.00 0.00 77 1014.5
20220815072004 76 0 0.0 0.0 0.00 0.00 0.00 77 1014.6
20220815070504 77 0 0.0 0.0 0.00 0.00 0.00 75 1014.7
20220815065004 77 0 0.0 0.0 0.00 0.00 0.00 74 1015.0
20220815064505 78 0 0.0 0.0 0.00 0.00 0.00 74 1015.1
20220815064005 78 0 0.0 0.0 0.00 0.00 0.00 74 1015.2
20220815063504 78 0 0.0 0.0 0.00 0.00 0.00 74 1015.3
20220815063005 78 0 0.0 0.0 0.00 0.00 0.00 73 1015.4
20220815062004 78 0 0.0 0.0 0.00 0.00 0.00 73 1015.5
20220815061005 78 0 0.0 1.0 0.00 0.00 0.00 73 1015.6
20220815060004 79 0 0.0 1.0 0.00 0.00 0.00 72 1015.6
20220815054504 79 0 0.0 1.0 0.00 0.00 0.00 71 1015.8
20220815054005 79 0 0.0 1.0 0.00 0.00 0.00 71 1015.9
20220815053504 79 0 0.0 2.0 0.00 0.00 0.00 71 1015.8
20220815053004 79 0 0.0 3.0 0.00 0.00 0.00 70 1015.8
20220815052504 80 0 0.0 3.0 0.00 0.00 0.00 70 1015.9
20220815051504 80 204 1.0 5.0 0.00 0.00 0.00 70 1016.0
20220815050504 80 197 1.0 6.0 0.00 0.00 0.00 69 1016.0
20220815050005 80 196 1.0 4.0 0.00 0.00 0.00 69 1016.0
20220815044004 80 0 0.0 2.0 0.00 0.00 0.00 69 1016.0
20220815042505 80 0 0.0 1.0 0.00 0.00 0.00 68 1015.8
20220815041504 80 0 0.0 3.0 0.00 0.00 0.00 68 1015.7
20220815035505 81 0 0.0 3.0 0.00 0.00 0.00 67 1015.5
20220815034504 81 0 0.0 3.0 0.00 0.00 0.00 67 1015.5
20220815034005 81 0 0.0 4.0 0.00 0.00 0.00 67 1015.4
20220815033505 81 0 0.0 4.0 0.00 0.00 0.00 67 1015.4
20220815032004 82 0 0.0 3.0 0.00 0.00 0.00 67 1015.3
20220815025504 82 0 0.0 4.0 0.00 0.00 0.00 67 1014.9
20220815024504 83 199 1.0 5.0 0.00 0.00 0.00 66 1014.7
20220815024004 83 183 1.0 5.0 0.00 0.00 0.00 66 1014.7
20220815023004 83 138 1.0 4.0 0.00 0.00 0.00 65 1014.5
20220815021504 84 0 0.0 4.0 0.00 0.00 0.00 64 1014.3
20220815015504 84 0 0.0 3.0 0.00 0.00 0.00 64 1014.3
20220815013504 84 0 0.0 3.0 0.00 0.00 0.00 63 1014.2
20220815010505 86 0 0.0 4.0 0.00 0.00 0.00 61 1014.0
20220815010004 86 0 0.0 4.0 0.00 0.00 0.00 61 1014.0
20220815005004 86 0 0.0 4.0 0.00 0.00 0.00 60 1013.9
20220815004005 86 200 1.0 4.0 0.00 0.00 0.00 60 1013.8
20220815003004 87 177 1.0 4.0 0.00 0.00 0.00 60 1013.7
20220815000504 88 112 1.0 4.0 0.00 0.00 0.00 59 1013.7
20220814235005 88 175 1.0 6.0 0.00 0.00 0.00 59 1013.9
20220814234504 88 158 1.0 6.0 0.00 0.00 0.00 58 1013.9
20220814232504 89 136 1.0 4.0 0.00 0.00 0.00 60 1014.0
20220814231505 89 108 1.0 3.0 0.00 0.00 0.00 61 1013.9
20220814225504 90 116 1.0 6.0 0.00 0.00 0.00 59 1014.2